Zurück zum Katalog

COSMOS 2251 DEB

AktivVLEO
NORAD 38220·DEBRIS·🇷🇺 Russia

Gestartet Jun 16, 1993 von Plesetsk Cosmodrome

Loading…

Nächste Überflüge (nächste 24 Stunden)

TLE

AlterndSource: Space-Track

Epoche: Sep 13, 2026, 06:39 UTC

1 38220U 93036BTL 26256.27717919  .00034680  00000-0  20187-2 0  9991
2 38220  74.0082 226.7457 0006037 255.3219 104.7305 15.11863148754952

Verfolge COSMOS 2251 DEB in Echtzeit mit AllMySat

Download on the App Store